Location: Brno
(49.2000°N, 16.6330°E)
Time: 22:22:50
(UTC+02:00)

Daily predictions for brighter satellites

Satellite Brightness Start Highest point End
(mag) Time Altitude Azimuth Time Altitude Azimuth Time Altitude Azimuth
USA 215 4.4 18:59:34 10° ENE 19:04:26 22° SE 19:09:16 10° S
Cosmos 1674 4.2 19:03:50 10° NNE 19:06:42 19° ENE 19:09:34 10° ESE
Meteor 1-21 Rocket 4.5 19:03:52 10° N 19:09:13 46° ENE 19:14:31 10° SE
Cosmos 1980 4.4 19:04:15 10° SW 19:09:49 59° WNW 19:15:28 10° NNE
SJ-6B 2.9 19:08:17 10° SSE 19:12:16 71° ENE 19:16:23 10° N
Spot 2 Rocket 3.7 19:07:46 10° SE 19:12:36 48° ENE 19:17:27 10° N
ALOS 3.2 19:10:46 10° ESE 19:14:46 29° ENE 19:18:47 10° N
METEOR-M 4.2 19:11:18 10° SSE 19:16:33 59° ENE 19:21:49 10° N
SL-16 R/B 2.2 19:11:04 10° SSW 19:16:44 74° ESE 19:22:26 10° NNE
ATLAS 3B R/B 3.8 19:13:04 10° WSW 19:20:21 48° NW 19:27:22 10° NE
Nadezhda 4 Rocket 4.2 19:17:02 10° N 19:23:08 48° ENE 19:29:07 10° SSE
Cosmos 1484 Rocket 4.0 19:20:29 10° S 19:24:13 47° W 19:28:03 10° NNW
Cosmos 1758 3.7 19:22:09 10° SSE 19:26:02 43° E 19:29:57 10° NNE
Helios 1A 3.2 19:22:05 10° SE 19:26:10 51° ENE 19:30:17 10° N
Cosmos 2219 Rocket 3.9 19:25:22 10° WSW 19:30:27 34° NW 19:35:36 10° NNE
Cosmos 1092 Rocket 4.4 19:25:54 10° N 19:31:47 42° ENE 19:37:34 10° SE
Cosmos 1072 Rocket 4.4 19:25:54 10° S 19:32:00 82° E 19:38:10 10° N
FENGYUN 3A 4.0 19:26:57 10° SE 19:32:00 43° ENE 19:37:06 10° N
Cosmos 1743 Rocket 3.8 19:28:09 10° N 19:32:29 48° ENE 19:36:45 10° SSE
Resurs 1-3 3.7 19:28:35 10° SSE 19:32:51 53° ENE 19:37:09 10° N
ERBS 3.6 19:30:31 10° NW 19:33:41 31° NNE 19:36:07 14° ENE
ATLAS CENTAUR R/B 4.0 19:28:46 10° SSW 19:34:23 62° SE 19:52:37 10° NE
Resurs 01 Rocket 1.6 19:33:24 10° SSE 19:37:50 75° ENE 19:42:18 10° N
Cosmos 482 Debris 4.0 19:37:42 10° WNW 19:39:44 41° N 19:41:42 17° ENE
Cosmos 1544 3.5 19:37:18 10° SSE 19:40:49 40° E 19:44:22 10° NNE
NOSS 3-2 (A) 3.5 19:36:04 10° SW 19:42:15 86° SE 19:49:05 10° NE
ISS -1.4 19:42:07 10° S 19:43:56 14° SE 19:43:56 14° SE
Cosmos 1766 4.1 19:41:19 10° SSW 19:45:14 56° WNW 19:49:12 10° N
COSMO-SKYMED 1 3.9 19:45:24 10° N 19:49:32 43° WNW 19:53:39 10° SW
Cosmos 1943 Rocket 3.1 19:45:23 10° NNW 19:50:24 31° NE 19:53:28 19° E
USA 186 2.9 19:51:06 18° NE 19:51:06 18° NE 19:52:18 10° NNE
Cosmos 2369 Rocket 2.3 19:47:42 10° NNW 19:53:18 60° ENE 19:58:01 15° SE
Helios 1B rocket 2.3 19:52:06 10° NNE 19:56:12 65° ESE 20:00:17 10° S
CZ-2D R/B 3.4 19:54:02 13° SE 19:57:17 51° ENE 20:01:05 10° N
ERS-1 Rocket 4.0 19:55:32 20° E 19:57:29 26° ENE 20:01:37 10° N
Cosmos 1939 Rocket 4.4 19:57:20 18° ENE 19:57:33 18° ENE 20:00:17 10° NNE
HJ-1C 4.0 19:54:45 10° S 19:58:05 59° W 20:01:27 10° NNW
GP-B 3.8 19:54:16 10° NNE 19:58:17 32° E 20:00:39 20° SE
Cosmos 1943 3.9 19:53:48 10° SSE 19:58:37 30° ESE 20:03:26 10° NE
Meteor 1-28 Rocket 3.8 19:56:35 10° N 20:00:16 59° WNW 20:03:56 10° SSW
Cosmos 2263 4.4 19:56:21 10° NNW 20:02:03 53° NE 20:05:47 21° SE
Cosmos 1110 Rocket 4.5 19:57:07 10° NNW 20:02:11 43° ENE 20:05:03 23° ESE
Cosmos 1603 3.7 19:58:39 10° SSW 20:04:21 70° ESE 20:10:05 10° NNE
Cosmos 2034 Rocket 4.1 20:00:46 10° SSW 20:07:03 81° W 20:13:27 10° N
H-2A R/B 2.7 20:07:04 16° SSE 20:10:04 69° ENE 20:13:56 10° N
CENTAUR R/B 3.0 20:06:10 10° S 20:11:44 38° ESE 20:17:56 10° NE
Cosmos 1805 3.9 20:08:57 10° SSW 20:12:50 59° WNW 20:16:45 10° N
BREEZE-M DEB (TANK) 3.9 19:58:18 10° W 20:12:52 69° S 20:15:33 28° ESE
Cosmos 1805 Rocket 4.4 20:10:59 10° N 20:14:54 30° ENE 20:15:14 29° E
CZ-4C R/B 3.7 20:10:26 10° W 20:15:40 36° NNW 20:21:37 10° NE
H-2A R/B 3.8 20:17:28 18° NE 20:17:28 18° NE 20:20:21 10° NNE
CZ-4B DEB 4.4 20:16:40 31° SSE 20:18:14 70° ENE 20:21:50 10° N
Cosmos 1953 3.2 20:14:51 10° SSW 20:18:44 51° WNW 20:22:38 10° N
Abrixas 4.1 20:18:00 10° SW 20:19:41 23° S 20:19:41 23° S
CZ-4B DEB 3.2 20:19:18 17° S 20:21:42 64° WSW 20:24:57 10° NNW
NOSS 3-2 (C) 3.8 20:15:36 10° SW 20:21:49 73° NW 20:28:43 10° NE
Cosmos-2242 3.7 20:18:13 10° SSW 20:22:31 56° WNW 20:26:52 10° N
Cosmos 2058 3.3 20:18:36 10° N 20:22:31 41° ENE 20:22:50 40° E
Cosmos 2151 2.9 20:19:49 10° N 20:24:01 62° ENE 20:25:35 36° SE
Meteor 1-29 3.3 20:20:34 10° N 20:24:05 69° WNW 20:27:34 10° SSW
ASTEX 1 3.3 20:19:09 10° N 20:24:07 81° E 20:29:00 10° S
Cosmos 1633 Rocket 4.4 20:24:00 10° NNE 20:26:49 23° NE 20:26:49 23° NE
Cosmos 2221 3.9 20:29:53 23° NE 20:29:53 23° NE 20:32:00 10° NNE
Cosmos 724 4.4 20:24:55 10° SW 20:30:54 82° NW 20:37:04 10° NE
Cosmos 1627 Rocket 4.4 20:27:49 10° N 20:34:03 74° E 20:38:43 19° SSE
Cosmos 1331 Rocket 4.0 20:29:25 10° NNW 20:34:45 66° ENE 20:36:37 40° SE
ATLAS 5 CENTAUR R/B 2.5 20:31:28 10° WSW 20:36:20 59° NW 20:41:41 10° NE
Cosmos 1733 3.1 20:32:34 10° S 20:36:27 86° E 20:40:20 10° N
Cosmos 1470 2.8 20:33:08 10° SSW 20:37:01 78° W 20:40:55 10° N
YAOGAN 11 4.2 20:36:55 49° E 20:37:10 50° ENE 20:41:20 10° N
Meteor 1-16 Rocket 4.1 20:35:30 27° SSE 20:38:09 52° E 20:43:20 10° NNE
Meteor 1-11 4.2 20:34:41 10° N 20:40:31 73° ENE 20:43:21 31° SSE
Cosmos 1500 Rocket 4.5 20:36:54 10° NNW 20:41:12 49° W 20:45:29 10° SSW
Cosmos 1674 4.1 20:38:53 10° NNW 20:42:32 39° W 20:46:10 10° SSW
SPOT 5 3.9 20:46:16 26° NE 20:46:16 26° NE 20:49:01 10° N
Cosmos 1842 Rocket 3.9 20:41:16 10° SSW 20:45:34 65° WNW 20:49:56 10° N
Cosmos 1302 Rocket 4.1 20:42:13 10° NNW 20:47:19 52° ENE 20:47:56 49° E
SL-24 R/B - RUBIN 2 4.5 20:40:50 10° NW 20:47:37 88° SW 20:50:15 39° SE
USA 215 3.1 20:43:33 20° ENE 20:48:15 69° SE 20:54:46 10° SW
BREEZE-M DEB (TANK) 3.9 20:38:07 10° WSW 20:49:23 83° SSE 20:50:55 46° E
ALOS 3.6 20:47:43 10° SSW 20:52:05 39° W 20:56:30 10° NNW
Cosmos 1666 Rocket 4.1 20:49:44 10° N 20:53:19 45° NE 20:53:19 45° NE
Cosmos 1656 Rocket 4.1 20:50:22 10° NNW 20:55:32 42° NE 20:55:50 42° ENE
Cosmos 1048 Rocket 4.4 20:51:26 10° SW 20:56:41 64° WNW 21:01:54 10° NNE
ARGOS 4.2 21:01:04 29° NE 21:01:04 29° NE 21:05:08 10° N
SL-16 R/B 4.3 20:56:44 10° W 21:01:27 26° NW 21:06:11 10° NNE
Envisat 2.8 21:01:43 67° ESE 21:02:16 75° ENE 21:07:22 10° N
ERBS 3.8 21:07:14 10° WNW 21:09:32 38° WNW 21:09:32 38° WNW
SL-8 R/B 4.3 21:06:46 10° WSW 21:10:20 45° SSW 21:10:20 45° SSW
Cosmos 2279 Rocket 3.8 21:11:39 41° S 21:13:59 79° E 21:20:13 10° NNE
Cosmos 158 Rocket 4.1 21:11:51 10° SSW 21:16:42 67° WNW 21:21:36 10° NNE
H-2A R/B 3.8 21:18:27 20° NNE 21:18:27 20° NNE 21:20:51 10° N
Cosmos 1626 4.4 21:15:55 10° N 21:16:58 18° N 21:16:58 18° N
Cosmos 1655 Rocket 4.3 21:16:29 10° NNW 21:22:39 63° W 21:25:38 31° SSW
Cosmos 1980 Rocket 4.5 21:21:20 10° N 21:23:15 12° NNE 21:24:26 11° NE
Cosmos 2266 Rocket 4.0 21:21:11 10° N 21:27:16 62° ENE 21:27:16 62° ENE
SeaSat 1 4.2 21:22:59 10° NNE 21:34:43 - SSW 21:24:36 21° NNE
Sich 1 3.9 21:24:29 10° NNW 21:27:34 45° NNW 21:27:34 45° NNW
Cosmos 1939 Rocket 4.2 21:33:17 38° NW 21:33:17 38° NW 21:36:04 10° NNW
Cosmos 1943 Rocket 2.5 21:28:58 10° NW 21:34:28 56° WSW 21:35:00 54° SW
ERS-1 Rocket 3.6 21:35:32 49° WSW 21:36:00 51° W 21:40:56 10° NNW
Cosmos 2369 Rocket 4.0 21:32:23 10° NW 21:36:57 26° WSW 21:39:50 17° SW
SPOT 1/Viking Rocket 4.4 21:41:29 40° NNE 21:41:29 40° NNE 21:44:57 10° N
UNK 4.2 21:23:47 10° WNW 21:41:00 71° SSW 21:41:32 68° S
Terra 4.0 21:43:44 17° NNE 21:43:44 17° NNE 21:45:13 10° N
Cosmos 1943 3.9 21:36:56 10° SW 21:42:25 52° NW 21:47:55 10° NNE
MetOp-B 4.4 21:44:23 63° NNW 21:44:23 63° NNW 21:48:51 10° NNW
Lacrosse 4 Rocket 4.3 21:50:41 10° N 21:51:25 11° NNE 21:51:25 11° NNE
H-2A R/B 3.6 21:54:37 34° NNW 21:54:37 34° NNW 21:57:19 10° NNW
CENTAUR R/B 3.0 21:55:52 10° WSW 22:02:06 60° NW 22:09:13 10° NE
CZ-4C R/B 4.4 22:01:15 10° NW 22:06:06 23° N 22:10:06 14° NE
ATLAS 5 CENTAUR R/B 4.2 22:18:05 10° WNW 22:22:09 23° NNW 22:24:52 16° NNE
Cosmos 1697 Rocket 4.5 22:25:20 10° NNW 22:28:12 24° N 22:28:12 24° N
USA 215 3.6 22:30:56 57° N 22:31:13 58° NNW 22:37:36 10° W
H-2A R/B 4.2 22:59:06 23° NNW 22:59:06 23° NNW 23:01:01 10° NNW
ATLAS 3B R/B 4.2 22:59:41 10° NW 23:05:53 29° NNE 23:06:17 29° NNE
Cosmos 1980 Rocket 4.2 23:03:52 10° NNW 23:06:11 22° N 23:06:11 22° N
